Weather History for Oakdale, LA

Change the Weather History Date:

Sunday, August 5, 2012

  Actual Average (KPOE) Record (KPOE)
Temperature  
Mean Temperature 82 °F -  
Max Temperature 93 °F 90 °F 102 °F (2011)
Min Temperature 71 °F 71 °F 71 °F (1999)
Cooling Degree Days 17    
Growing Degree Days 32 (Base 50)    
Moisture  
Dew Point 76 °F    
Average Humidity 81    
Maximum Humidity 100    
Minimum Humidity 49    
Precipitation  
Precipitation 0.00 in - - ()
Sea Level Pressure  
Sea Level Pressure 30.07 in    
Wind  
Wind Speed 1 mph (NE)    
Max Wind Speed 7 mph    
Max Gust Speed -    
Visibility 8 miles    
Events Thunderstorm    
Averages and records for this station are not official NWS values.
T = Trace of Precipitation, MM = Missing Value Source: NWS Daily Summary

Daily Weather History Graph

Daily Weather History Graph

Search for Another Location

Airport:

Trip Planner

Search our weather history database for the weather conditions in past years. The results will help you decide how hot, cold, wet, or windy it might be!

Date:

Astronomy

Aug. 05, 2012 Rise Set
Actual Time 6:31 AM CDT 8:01 PM CDT
Civil Twilight 6:05 AM CDT 8:27 PM CDT
Nautical Twilight 5:34 AM CDT 8:58 PM CDT
Astronomical Twilight 5:01 AM CDT 9:30 PM CDT
Moon 10:03 PM CDT (8/5) 9:59 AM CDT (8/5)
Length of Visible Light 14h 22m
Length of Day
13h 30m
Waning Gibbous, 86% of the Moon is Illuminated
Aug 5
Waning Gibbous
Aug 9
Last Quarter
Aug 17
New
Aug 24
First Quarter
Aug 31
Full

Hourly Weather History & Observations

Time (CDT) Temp. Heat Index Dew Point Humidity Pressure Visibility Wind Dir Wind Speed Gust Speed Precip Events Conditions
12:15 AM - - - N/A% 30.03 in 7.0 mi Calm Calm - N/A   Clear
12:35 AM - - - N/A% 30.03 in 7.0 mi Calm Calm - N/A   Clear
12:55 AM - - - N/A% 30.04 in 10.0 mi Calm Calm - N/A   Clear
1:15 AM - - - N/A% 30.03 in 7.0 mi Calm Calm - N/A   Clear
1:35 AM 75.2 °F - 75.2 °F 100% 30.03 in 5.0 mi North 3.5 mph - N/A   Clear
1:55 AM 75.2 °F - 75.2 °F 100% 30.04 in 5.0 mi Calm Calm - N/A   Clear
2:15 AM 75.2 °F - 75.2 °F 100% 30.04 in 5.0 mi Calm Calm - N/A   Haze
2:35 AM 75.2 °F - 75.2 °F 100% 30.04 in 5.0 mi Calm Calm - N/A   Clear
2:55 AM 75.2 °F - 75.2 °F 100% 30.04 in 5.0 mi Calm Calm - N/A   Clear
3:15 AM 75.2 °F - 75.2 °F 100% 30.04 in 5.0 mi Calm Calm - N/A   Clear
3:55 AM 73.4 °F - 73.4 °F 100% 30.03 in 4.0 mi Calm Calm - N/A   Clear
4:15 AM 73.4 °F - 73.4 °F 100% 30.03 in 4.0 mi Calm Calm - N/A   Clear
4:35 AM 73.4 °F - 73.4 °F 100% 30.03 in 5.0 mi Calm Calm - N/A   Clear
4:55 AM 73.4 °F - 73.4 °F 100% 30.04 in 4.0 mi Calm Calm - N/A   Clear
5:15 AM 73.4 °F - 73.4 °F 100% 30.05 in 4.0 mi Calm Calm - N/A   Clear
5:35 AM 71.6 °F - 71.6 °F 100% 30.06 in 4.0 mi Calm Calm - N/A   Clear
5:55 AM 71.6 °F - 71.6 °F 100% 30.06 in 3.0 mi Calm Calm - N/A   Clear
6:15 AM 71.6 °F - 71.6 °F 100% 30.07 in 4.0 mi Calm Calm - N/A   Clear
6:35 AM 71.6 °F - 71.6 °F 100% 30.07 in 3.0 mi Calm Calm - N/A   Clear
6:55 AM 71.6 °F - 71.6 °F 100% 30.09 in 2.5 mi Calm Calm - N/A   Clear
7:15 AM 73.4 °F - 73.4 °F 100% 30.09 in 1.8 mi Calm Calm - N/A   Mist
7:35 AM 75.2 °F - 75.2 °F 100% 30.10 in 2.0 mi Calm Calm - N/A   Clear
7:55 AM 77.0 °F - 77.0 °F 100% 30.12 in 2.5 mi Calm Calm - N/A   Clear
8:15 AM 78.8 °F - 78.8 °F 100% 30.12 in 4.0 mi Calm Calm - N/A   Clear
8:35 AM 77.0 °F - 77.0 °F 100% 30.12 in 4.0 mi Calm Calm - N/A   Clear
8:55 AM 78.8 °F - 78.8 °F 100% 30.13 in 5.0 mi Calm Calm - N/A   Clear
9:15 AM 80.6 °F 89.3 °F 80.6 °F 100% 30.13 in 7.0 mi Calm Calm - N/A   Clear
9:35 AM 84.2 °F 100.6 °F 82.4 °F 94% 30.13 in 10.0 mi Calm Calm - N/A   Clear
9:55 AM 84.2 °F 94.1 °F 77.0 °F 79% 30.13 in 10.0 mi Calm Calm - N/A   Clear
10:15 AM 84.2 °F 92.3 °F 75.2 °F 74% 30.13 in 10.0 mi NNE 3.5 mph - N/A   Scattered Clouds
10:35 AM 86.0 °F 95.1 °F 75.2 °F 70% 30.13 in 10.0 mi NNE 4.6 mph - N/A   Clear
11:15 AM 87.8 °F 95.6 °F 73.4 °F 62% 30.12 in 10.0 mi North 5.8 mph - N/A   Scattered Clouds
11:35 AM 89.6 °F 98.2 °F 73.4 °F 59% 30.11 in 10.0 mi NNE 4.6 mph - N/A   Scattered Clouds
11:55 AM 89.6 °F 98.2 °F 73.4 °F 59% 30.11 in 10.0 mi NNE 3.5 mph - N/A   Clear
12:15 PM 89.6 °F 99.8 °F 75.2 °F 62% 30.11 in 10.0 mi NNE 4.6 mph - N/A   Clear
12:35 PM 89.6 °F 98.2 °F 73.4 °F 59% 30.11 in 10.0 mi ENE 6.9 mph - N/A   Clear
12:55 PM 91.4 °F 98.4 °F 71.6 °F 52% 30.11 in 10.0 mi North 6.9 mph - N/A   Clear
1:15 PM 89.6 °F 98.2 °F 73.4 °F 59% 30.10 in 10.0 mi NE 3.5 mph - N/A   Scattered Clouds
1:35 PM 91.4 °F 100.1 °F 73.4 °F 55% 30.10 in 10.0 mi Calm Calm - N/A   Scattered Clouds
1:55 PM 89.6 °F 98.2 °F 73.4 °F 59% 30.10 in 10.0 mi East 3.5 mph - N/A   Mostly Cloudy
2:15 PM 91.4 °F 98.4 °F 71.6 °F 52% 30.09 in 10.0 mi Calm Calm - N/A   Scattered Clouds
2:55 PM 93.2 °F 102.4 °F 73.4 °F 52% 30.07 in 10.0 mi NE 5.8 mph - N/A   Scattered Clouds
3:15 PM 93.2 °F 100.5 °F 71.6 °F 49% 30.06 in 10.0 mi Calm Calm - N/A   Clear
3:35 PM 91.4 °F 100.1 °F 73.4 °F 55% 30.05 in 10.0 mi ESE 5.8 mph - N/A   Clear
3:55 PM 91.4 °F 100.1 °F 73.4 °F 55% 30.04 in 10.0 mi SSE 4.6 mph - N/A   Clear
4:15 PM 91.4 °F 100.1 °F 73.4 °F 55% 30.04 in 10.0 mi Calm Calm - N/A   Clear
4:35 PM 93.2 °F 100.5 °F 71.6 °F 49% 30.03 in 10.0 mi Calm Calm - N/A   Clear
4:55 PM 93.2 °F 100.5 °F 71.6 °F 49% 30.03 in 10.0 mi ESE 3.5 mph - N/A   Clear
5:15 PM 93.2 °F 102.4 °F 73.4 °F 52% 30.02 in 10.0 mi SE 4.6 mph - N/A   Clear
5:35 PM 93.2 °F 100.5 °F 71.6 °F 49% 30.03 in 10.0 mi Calm Calm - N/A   Clear
5:55 PM 93.2 °F 100.5 °F 71.6 °F 49% 30.03 in 10.0 mi Calm Calm - N/A Thunderstorm Clear
6:15 PM 91.4 °F 100.1 °F 73.4 °F 55% 30.02 in 10.0 mi Calm Calm - N/A   Clear
6:35 PM 89.6 °F 99.8 °F 75.2 °F 62% 30.02 in 10.0 mi South 3.5 mph - N/A   Clear
6:55 PM 89.6 °F 99.8 °F 75.2 °F 62% 30.01 in 10.0 mi Calm Calm - N/A   Clear
7:15 PM 87.8 °F 102.5 °F 78.8 °F 75% 30.02 in 10.0 mi Calm Calm - N/A   Clear
7:35 PM 87.8 °F 104.9 °F 80.6 °F 79% 30.03 in 10.0 mi Calm Calm - N/A   Clear
7:55 PM 86.0 °F 101.9 °F 80.6 °F 84% 30.03 in 10.0 mi Calm Calm - N/A Thunderstorm Thunderstorm
8:15 PM 86.0 °F 104.7 °F 82.4 °F 89% 30.04 in 10.0 mi Calm Calm - N/A   Scattered Clouds
8:35 PM 84.2 °F 103.5 °F 84.2 °F 100% 30.04 in 10.0 mi Calm Calm - N/A Thunderstorm Clear
8:55 PM 82.4 °F 96.1 °F 82.4 °F 100% 30.06 in 7.0 mi Calm Calm - N/A Thunderstorm Clear
9:15 PM 82.4 °F 96.1 °F 82.4 °F 100% 30.06 in 10.0 mi Calm Calm - N/A Thunderstorm Thunderstorm
9:35 PM 82.4 °F 96.1 °F 82.4 °F 100% 30.08 in 10.0 mi NNE 4.6 mph - N/A Thunderstorm Scattered Clouds
9:55 PM 82.4 °F 90.9 °F 77.0 °F 84% 30.08 in 10.0 mi ENE 3.5 mph - N/A   Mostly Cloudy
10:15 PM 80.6 °F 86.2 °F 75.2 °F 84% 30.08 in 10.0 mi Calm Calm - N/A   Scattered Clouds
10:35 PM 80.6 °F 89.3 °F 80.6 °F 100% 30.08 in 10.0 mi Calm Calm - N/A   Clear
10:55 PM 78.8 °F - 78.8 °F 100% 30.07 in 10.0 mi Calm Calm - N/A   Clear
11:15 PM 80.6 °F 89.3 °F 80.6 °F 100% 30.07 in 10.0 mi Calm Calm - N/A   Clear
11:35 PM 78.8 °F - 78.8 °F 100% 30.07 in 7.0 mi Calm Calm - N/A   Clear